Location: Goettingen
(51.5300°N, 9.9433°E)
Time: 22:50:58
(UTC+01:00)

ISS - Pass Details

Date: 30 November 2024
Orbit: 411 x 421 km, 51.6° (Epoch: 03 December)

Event Time Altitude Azimuth Distance (km) Brightness Sun altitude
Rises 19:19:42 0° 277° (W) 2,375 1.3 -27.8°
Reaches altitude 10° 19:23:15 10° 238° (WSW) 1,504 -0.3 -28.3°
Maximum altitude 19:24:05 11° 224° (SW) 1,459 -0.5 -28.4°
Enters shadow 19:24:14 11° 221° (SW) 1,460 -0.6 -28.5°
